Flag for Russia Weather past 2 weeks in Yakutsk, Russia

Now
48 °F

More clouds than sun.


Feels Like: 46 °F
Forecast: 40 / 57 °F
Wind: 6 mph from Northwest

Location: Jakutsk

Current Time: Aug 31, 2014 at 12:25:56 PM

Latest Report: Aug 31, 2014 at 12:00 PM


Visibility: N/A

Pressure: 29.95 "Hg

Humidity: 66%

Dew point: 37 °F

Location of YakutskLocation

Historic Weather in Yakutsk — Graph

°F

Yakutsk temperature yesterday

Maximum temperature yesterday: 75 °F (at 5:00 PM)
Minimum temperature yesterday: 50 °F (at 3:00 AM)
Average temperature yesterday: 63 °F

Past Weeks' High & Low Weather Summary

 TemperatureHumidityPressure
High84 °F (Aug 19, 3:30 PM)100% (Aug 19, 3:30 AM)30.09 "Hg (Aug 19, 3:30 AM)
Low45 °F (Aug 17, 5:30 AM)31% (Aug 19, 3:30 PM)29.33 "Hg (Aug 21, 12:00 PM)
Average61 °F72%29.82 "Hg
* Reported Aug 16 11:00 AM — Aug 31 11:00 AM, Yakutsk, Weather by CustomWeather, © 2014

Note: Actual official high and low records may vary slightly from our data, if they occured in-between our weather recording intervals... More about our weather records

Advertising

Yakutsk weather history for previous 24 hours

 ConditionsComfort  
Time TempWeatherWind HumidityBarometerVisibility
11:00 AM
Aug 31
46 °FMore clouds than sun.8 mph71%29.95 "HgN/A
10:30 AM46 °FMore clouds than sun.8 mph71%29.95 "HgN/A
10:00 AM45 °FMostly cloudy.6 mph81%29.95 "HgN/A
9:30 AM45 °FMostly cloudy.6 mph81%29.92 "HgN/A
9:00 AM45 °FMostly cloudy.6 mph87%29.92 "HgN/A
8:30 AM45 °FSprinkles. Mostly cloudy.6 mph87%29.92 "HgN/A
8:00 AM45 °FMore clouds than sun.3 mph87%29.92 "HgN/A
7:30 AM45 °FMore clouds than sun.6 mph81%29.89 "HgN/A
6:30 AM45 °FMostly cloudy.6 mph81%29.89 "HgN/A
6:00 AM45 °FMostly cloudy.3 mph81%29.89 "HgN/A
5:30 AM45 °FMostly cloudy.6 mph81%29.89 "HgN/A
5:00 AM45 °FMostly cloudy.6 mph81%29.92 "HgN/A
4:30 AM45 °FSprinkles. Mostly cloudy.6 mph81%29.92 "HgN/A
4:00 AM46 °FPartly cloudy.6 mph76%29.89 "HgN/A
3:30 AM46 °FPartly cloudy.8 mph76%29.89 "HgN/A
3:00 AM46 °FPartly cloudy.8 mph82%29.89 "HgN/A
2:30 AM46 °FPartly cloudy.8 mph82%29.89 "HgN/A
2:00 AM48 °FPartly cloudy.8 mph76%29.89 "HgN/A
1:30 AM48 °FClear.10 mph82%29.86 "Hg10 mi
1:00 AM48 °FClear.8 mph82%29.86 "Hg10 mi
12:30 AM50 °FClear.10 mph82%29.86 "Hg10 mi
12:00 AM52 °FClear.10 mph77%29.86 "Hg10 mi
11:30 PM
Aug 30
52 °FClear.8 mph82%29.83 "Hg10 mi
11:00 PM55 °FClear.10 mph77%29.83 "Hg10 mi
10:30 PM57 °FClear.13 mph77%29.80 "Hg10 mi
10:00 PM59 °FClear.13 mph72%29.80 "Hg10 mi
9:30 PM64 °FSunny.8 mph73%29.77 "Hg10 mi
9:00 PM66 °FSunny.3 mph64%29.77 "Hg10 mi
8:30 PM68 °FSunny.3 mph64%29.74 "Hg10 mi
8:00 PM70 °FSunny.3 mph57%29.74 "Hg10 mi
7:30 PM72 °FSunny.3 mph53%29.74 "Hg10 mi
7:00 PM73 °FSunny.3 mph50%29.74 "Hg10 mi
6:30 PM73 °FSunny.3 mph50%29.74 "Hg10 mi
6:00 PM73 °FSunny.3 mph50%29.74 "Hg10 mi
5:30 PM75 °FSunny.3 mph44%29.74 "Hg10 mi
5:00 PM75 °FSunny.3 mph41%29.74 "Hg10 mi
4:30 PM73 °FSunny.3 mph44%29.74 "Hg10 mi
4:00 PM73 °FSunny.3 mph44%29.74 "Hg10 mi
3:30 PM73 °FSunny.3 mph44%29.77 "Hg10 mi
3:00 PM73 °FSunny.3 mph44%29.77 "Hg10 mi
2:30 PM73 °FSunny.3 mph47%29.77 "Hg10 mi
2:00 PM73 °FSunny.3 mph47%29.77 "Hg10 mi
1:30 PM72 °FSunny.6 mph53%29.77 "Hg10 mi
1:00 PM72 °FSunny.3 mph50%29.77 "Hg10 mi
12:30 PM72 °FSunny.3 mph53%29.77 "Hg10 mi
12:00 PM70 °FSunny.No wind53%29.77 "Hg10 mi
Weather by CustomWeather, © 2014

See weather overviewHow to use our weather pages